[[{"header":{"parameterUnit":"m.s-1","parameterCategory":1,"la1":30.2992,"la2":30.254,"lo1":-89.0895,"lo2":-89.0443,"dy":0.0025,"dx":0.0025,"nx":19,"ny":19,"refTime":"2026-03-19T09:00:00:Z","depth":0,"parameterNumber":2,"parameterNumberName":"U-component_of_WINDS"},"data":[0,0,0,2.0127,2.0128,2.0157,2.0157,2.0216,2.0216,0,0,0,0,0,0,0,0,0,0,0,2.0132,2.0133,2.0127,2.0128,2.0157,2.0157,2.0215,2.0216,0,0,0,0,0,0,0,0,0,0,0,2.0132,2.0133,2.0134,2.0128,2.0157,2.0157,2.0215,2.0185,0,0,0,0,0,0,0,0,0,0,2.0153,2.0172,2.0132,2.0134,2.0128,2.0157,2.0157,2.0184,2.0187,2.0211,0,2.0237,0,2.0228,2.0222,2.0222,0,0,0,2.0118,2.0169,2.0164,2.0134,2.0129,2.0157,2.0141,2.0185,2.019,2.0216,2.0238,2.0239,2.0229,2.0222,2.0222,2.0393,2.0394,0,0,2.0116,2.0145,2.0161,2.0168,2.0165,2.014,2.0142,2.0188,2.0213,2.0238,2.024,2.023,2.0223,2.0223,2.0392,2.0394,0,0,0,2.0118,2.0144,2.0138,2.0166,2.0169,2.0141,2.0143,2.0211,2.0206,2.0241,2.023,2.0223,2.0224,2.0391,2.0393,2.0482,0,0,0,2.0117,2.0145,2.0138,2.0156,2.0169,2.0191,2.0166,2.0203,2.0207,2.023,2.0223,2.0225,2.0389,2.0392,2.0477,2.052,0,0,0,2.0125,2.0146,2.0155,2.0157,2.0171,2.019,2.0187,2.0203,2.0202,2.0222,2.0225,2.0388,2.0391,2.0472,2.0512,2.0572,0,0,0,2.0143,2.0237,2.0157,2.0257,2.0171,2.0245,2.0186,2.0241,2.0269,2.0223,2.0389,2.0392,2.047,2.0507,2.0567,2.0627,2.0655,0,0,2.0278,2.0254,2.0311,2.024,2.0335,2.0238,2.0346,2.0345,2.0322,2.037,2.0374,2.0478,2.0512,2.0571,2.0802,2.0825,0,0,0,2.0363,2.0404,2.0423,2.045,2.045,2.0453,2.0432,2.043,2.047,2.0353,2.0515,2.0534,2.0568,2.0595,2.0614,2.064,2.0406,2.0406,2.0406,2.0597,2.0558,2.0648,2.0612,2.0639,2.0613,2.0631,2.0624,2.0581,2.062,2.0634,2.0779,2.0813,2.0827,2.0854,2.0663,2.0663,2.0664,2.0664,2.079,2.084,2.0775,2.0838,2.0796,2.0849,2.0826,2.0792,2.0834,2.0766,2.0794,2.0723,2.0852,2.0874,2.067,2.0669,2.0668,2.0668,2.0667,2.0939,2.0956,2.0951,2.0982,2.101,2.097,2.1011,2.0972,2.0936,2.0963,2.0972,2.0971,2.0963,2.097,2.0971,2.0971,2.0971,2.0972,2.0972,2.1095,2.1086,2.1126,2.113,2.1139,2.1146,2.1118,2.1126,2.1125,2.1093,2.1093,2.1044,2.0872,2.083,2.098,2.0978,2.0977,2.0977,2.0976,2.1305,2.125,2.1312,2.1321,2.1319,2.1348,2.1295,2.1314,2.1315,2.1336,2.1279,2.1159,2.1133,2.1117,2.1082,2.1288,2.1288,2.1288,2.1288,2.143,2.1412,2.1463,2.1479,2.1491,2.1448,2.1516,2.1493,2.1461,2.1459,2.1422,2.1372,2.1358,2.134,2.132,2.1286,2.1539,2.1539,2.154,2.1556,2.1536,2.1603,2.1569,2.1563,2.1558,2.162,2.164,2.1593,2.1549,2.1455,2.1444,2.1362,2.1338,2.1294,2.1264,2.12,0,0]},{"header":{"parameterUnit":"m.s-1","parameterCategory":1,"la1":30.2992,"la2":30.254,"lo1":-89.0895,"lo2":-89.0443,"dy":0.0025,"dx":0.0025,"nx":19,"ny":19,"refTime":"2026-03-19T09:00:00:Z","depth":0,"parameterNumber":3,"parameterNumberName":"V-component_of_WINDS"},"data":[0,0,0,5.2428,5.243,5.2506,5.2506,5.262,5.2621,0,0,0,0,0,0,0,0,0,0,0,5.2418,5.242,5.2428,5.243,5.2506,5.2506,5.262,5.2621,0,0,0,0,0,0,0,0,0,0,0,5.2418,5.2419,5.2421,5.243,5.2506,5.2506,5.262,5.2555,0,0,0,0,0,0,0,0,0,0,5.2478,5.2483,5.2419,5.2421,5.2431,5.2506,5.2506,5.2552,5.2559,5.2593,0,5.263,0,5.2628,5.263,5.2631,0,0,0,5.2419,5.2477,5.2486,5.2421,5.2432,5.2506,5.2469,5.2556,5.2564,5.2603,5.2631,5.2635,5.263,5.2631,5.2632,5.2869,5.287,0,0,5.2415,5.2438,5.2481,5.2492,5.2485,5.2466,5.2471,5.2561,5.2592,5.2632,5.2637,5.2632,5.2632,5.2633,5.2867,5.2869,0,0,0,5.241,5.2436,5.2442,5.2488,5.2501,5.2469,5.2474,5.2588,5.2588,5.2638,5.2633,5.2633,5.2634,5.2865,5.2868,5.2969,0,0,0,5.2407,5.2433,5.2441,5.2456,5.25,5.2546,5.25,5.2582,5.2591,5.2632,5.2633,5.2636,5.2864,5.2867,5.2962,5.3011,0,0,0,5.2409,5.2433,5.2449,5.2457,5.2491,5.2544,5.2549,5.2583,5.2588,5.2631,5.2636,5.2862,5.2866,5.2956,5.3002,5.3079,0,0,0,5.2416,5.2537,5.2451,5.2583,5.2491,5.2608,5.2548,5.2634,5.2682,5.2633,5.2864,5.2868,5.2954,5.2996,5.3073,5.3146,5.318,0,0,5.2581,5.2558,5.2634,5.2559,5.2697,5.2594,5.2746,5.2767,5.2749,5.2829,5.2835,5.2964,5.3001,5.3078,5.3365,5.3392,0,0,0,5.2694,5.2749,5.278,5.2829,5.285,5.2871,5.2867,5.2875,5.2942,5.2796,5.3014,5.3035,5.3079,5.3112,5.3135,5.317,5.2885,5.2885,5.2884,5.2959,5.2931,5.3054,5.3035,5.3083,5.3078,5.3113,5.3121,5.3079,5.313,5.3153,5.3331,5.3372,5.3389,5.3426,5.3192,5.3192,5.3193,5.3193,5.3196,5.3268,5.3209,5.3307,5.3276,5.3356,5.3356,5.3323,5.3391,5.3312,5.3349,5.3263,5.342,5.345,5.32,5.3199,5.3198,5.3197,5.3197,5.3364,5.3393,5.3403,5.3469,5.3523,5.3498,5.3567,5.3536,5.3507,5.3544,5.3563,5.3561,5.3553,5.3556,5.3557,5.3557,5.3558,5.3558,5.3559,5.3534,5.3541,5.3604,5.3637,5.3663,5.3693,5.3689,5.3713,5.3731,5.3703,5.3703,5.3653,5.3442,5.3388,5.3568,5.3566,5.3565,5.3564,5.3564,5.378,5.3719,5.3817,5.3843,5.3877,5.3931,5.3892,5.3943,5.3959,5.3993,5.3936,5.3786,5.3758,5.374,5.3695,5.3944,5.3944,5.3944,5.3944,5.3919,5.3904,5.3995,5.4039,5.4078,5.4053,5.416,5.4158,5.4146,5.4153,5.4113,5.4051,5.4034,5.4016,5.3992,5.3949,5.4257,5.4257,5.4258,5.4067,5.4054,5.4152,5.4142,5.4166,5.4187,5.4286,5.4336,5.431,5.427,5.4157,5.4143,5.4044,5.4013,5.3968,5.393,5.3851,0,0]}]]